Location: Pedholt
(56.0260°N, 10.2097°E)
Time: 05:40:13
(UTC+00:00)

Cosmos 1666 Rocket - Pass Details

Date: 14 July 2020
Orbit: 603 x 633 km, 82.5° (Epoch: 14 August)

Event Time Altitude Azimuth Distance (km) Brightness Sun altitude
Exits shadow 00:23:49 14° 216° (SW) 1,715 5.3 -11.3°
Maximum altitude 00:27:21 48° 288° (WNW) 813 4.2 -11.2°
Drops below altitude 10° 00:31:36 10° 4° (N) 1,978 7.6 -11.1°
Sets 00:33:53 0° 10° (N) 2,883 9.1 -11.0°
